Regional Weather Roundup
Issued by NWS New Orleans/Baton Rouge, LA

Home | Current Version | Previous Version | Text Only | Print | Product List | Glossary On
Versions: 1 2 3 4 5 6 7 8 9 10 11 12 13 14 15 16 17 18 19 20 21 22 23 24 25 26 27 28 29 30 31 32 33 34 35 36 37 38 39 40 41 42 43 44 45 46 47 48 49 50
000
ASUS44 KLIX 221413
RWRLIX
NEW ORLEANS REGIONAL WEATHER ROUNDUP
NATIONAL WEATHER SERVICE NEW ORLEANS LA
900 AM CDT FRI SEP 22 2017

NOTE: "FAIR" INDICATES FEW OR NO CLOUDS BELOW 12,000 FEET WITH NO
      SIGNIFICANT WEATHER AND/OR OBSTRUCTIONS TO VISIBILITY.
      SKY/WX - SKY CONDITION AND SIGNIFICANT WEATHER.
      TMP - AIR TEMPERATURE.     DP    - DEWPOINT TEMPERATURE.
      RH  - RELATIVE HUMIDITY.   PRES  - PRESSURE.
      HI  - HEAT INDEX.          WCI   - WIND CHILL INDEX.

*  THESE STATIONS ARE NOT NWS OR FAA STATIONS AND ARE NOT UNDER
   NWS QUALITY CONTROL.

LAZ038-040-048-061>063-065>067-069-221500-
SOUTHEAST LOUISIANA

CITY           SKY/WX    TMP DP  RH WIND       PRES   REMARKS
N.O. INTL ARPT MOSUNNY   82  72  71 NE8       29.99S
N.O. LAKEFRONT SUNNY     82  73  74 NE8       30.00R
N.O. DOWNTOWN*   N/A     83  72  69 VRB6      30.00S
RESERVE*         N/A     82  73  74 CALM      30.00S
SLIDELL        SUNNY     78  71  79 NE3       30.00R
BATON ROUGE    SUNNY     77  72  84 E5        30.00R
BOOTHVILLE     MOSUNNY   84  77  79 NE5       30.00R
BELLE CHASSE   NOT AVBL
BOGALUSA*        N/A     77  71  81 NE3       30.03R
GALLIANO*      SUNNY     82  74  77 NE6       29.99R
NEW ROADS*       N/A     77  72  84 CALM      30.01R
GONZALES*        N/A     77  71  81 CALM      29.99S
HAMMOND*       SUNNY     79  68  69 NE3       30.00S
HOUMA*         SUNNY     79  79 100 NE7       29.99S
PORT FOURCHON* SUNNY     84  72  65 E7        29.99R

$$

MSZ070-080>082-221500-
SOUTHERN MISSISSIPPI

CITY           SKY/WX    TMP DP  RH WIND       PRES   REMARKS
MCCOMB         SUNNY     78  69  73 NE3       30.02R
GULFPORT       SUNNY     80  72  76 NE5       29.99S
BILOXI         SUNNY     78  72  81 NE6       30.00R
PASCAGOULA     SUNNY     79  72  79 CALM      30.00S

$$

COASTAL OBSERVATIONS
LAKE AND NEARSHORE STATIONS

STATION/POSITION TIME  TEMP    WIND        PRES    WAVE
                       AIR SEA DIR/SP/G            HT/PER
                 (UTC) (F)     (DEG/KT/KT) (MB)    (FT/S)
PASCAGOULA       1348   80      40/  4/  4 1015.3
WAVELAND YACHT   1348   78 83   70/  3/  5 1016.0
GRAND ISLE       1342   83 86   80/  5/  7 1015.5
SOUTHWEST PASS   1348   83      50/  8/ 10   N/A
NEW CANAL        1342   80 83   60/  9/ 10 1015.6
SHELL BEACH      1342   81 87   50/  7/  8 1015.8

OFFSHORE STATIONS

STATION/POSITION TIME  TEMP    WIND        PRES    WAVE
                       AIR SEA DIR/SP/G            HT/PER
                 (UTC) (F)     (DEG/KT/KT) (MB)    (FT/S)
64 S DAUPHIN ISL 1350   82 84   60/  6/  8 1015.6    1/ 4

$$




USA.gov is the U.S. government's official web portal to all federal, state and local government web resources and services.